Location: Agus-us
(14.2247°N, 120.8593°E)
Time: 08:22:56
(UTC+00:00)

USA 238 - Pass Details

Date: 13 December 2025
Orbit: 883 x 1328 km, 63.4° (Epoch: 10 January)

Event Time Altitude Azimuth Distance (km) Brightness Sun altitude
Exits shadow 19:33:26 59° 173° (S) 1,508 4.4 -36.9°
Drops below altitude 10° 19:39:51 10° 161° (SSE) 3,344 6.6 -35.4°
Sets 19:42:41 0° 160° (SSE) 4,295 7.3 -34.8°
